Portland, ME

5:33 PM EST on December 12, 2019 (GMT -0500)
Portland International

Weather History for KPWM - October, 2019

Change the Weather History Date:

Friday, October 4, 2019

  Actual Average Record
Temperature  
Mean Temperature 49 °F 53 °F  
Max Temperature 57 °F 63 °F 82 °F (1941)
Min Temperature 41 °F 43 °F 27 °F (1944)
Degree Days  
Heating Degree Days 16 12  
Month to date heating degree days 51 46  
Since 1 July heating degree days 213 267  
Cooling Degree Days 0 0  
Month to date cooling degree days 0 0  
Year to date cooling degree days 474 358  
Moisture  
Dew Point 41 °F    
Average Humidity 78    
Maximum Humidity 97    
Minimum Humidity 43    
Precipitation  
Precipitation 0.17 in 0.14 in 0.89 in (1987)
Month to date precipitation 0.39 0.59  
Year to date precipitation 35.12 34.02  
Snow  
Snow 0.00 in 0.00 in 0.00 in (2002)
Month to date snowfall 0.0 0.0  
Since 1 July snowfall 0.0 0.0  
Since 1 September snowfall 0.0 0.0  
Snow Depth 0.00 in    
Sea Level Pressure  
Sea Level Pressure 30.01 in    
Wind  
Wind Speed 6 mph ()    
Max Wind Speed 25 mph    
Max Gust Speed 32 mph    
Visibility 5.9 miles    
Events Rain    
T = Trace of Precipitation, MM = Missing Value Source: Averaged Metar Reports

Daily Weather History Graph

Daily Weather History Graph

Search for Another Location

Airport or City:

Astronomy

Oct. 04, 2019 Rise Set
Actual Time 6:41 AM EDT 6:17 PM EDT
Civil Twilight 6:13 AM EDT 6:45 PM EDT
Nautical Twilight 5:40 AM EDT 7:19 PM EDT
Astronomical Twilight 5:06 AM EDT 7:52 PM EDT
Moon 1:20 PM EDT (10/4) 10:33 PM EDT (10/4)
Length of Visible Light 12h 32m
Length of Day
11h 35m
Waxing Crescent, 39% of the Moon is Illuminated
Oct 4
Waxing Crescent
Oct 5
First Quarter
Oct 13
Full
Oct 21
Last Quarter
Oct 27
New

Hourly Weather History & Observations

Time (EDT) Temp. Windchill Dew Point Humidity Pressure Visibility Wind Dir Wind Speed Gust Speed Precip Events Conditions
12:51 AM 48.0 °F - 44.1 °F 86% 30.01 in 7.0 mi North 3.5 mph - 0.00 in   Overcast
1:39 AM 46.9 °F - 44.1 °F 90% 29.98 in 3.0 mi Calm Calm - 0.02 in Rain Light Rain
1:51 AM 46.9 °F - 44.1 °F 90% 29.98 in 4.0 mi Calm Calm - 0.03 in Rain Light Rain
2:16 AM 46.9 °F - 45.0 °F 93% 29.95 in 4.0 mi East 3.5 mph - 0.00 in Rain Light Rain
2:37 AM 46.9 °F - 45.0 °F 93% 29.94 in 4.0 mi East 3.5 mph - 0.01 in Rain Light Rain
2:51 AM 46.9 °F - 45.0 °F 93% 29.93 in 3.0 mi Calm Calm - 0.01 in Rain Light Rain
3:00 AM 46.9 °F - 46.0 °F 97% 29.93 in 3.0 mi Calm Calm - 0.01 in Rain Light Rain
3:27 AM 48.0 °F - 46.0 °F 93% 29.92 in 2.5 mi Calm Calm - 0.02 in Rain Light Rain
3:51 AM 48.0 °F - 46.0 °F 93% 29.91 in 2.0 mi Calm Calm - 0.04 in Rain Light Rain
4:16 AM 48.0 °F - 46.0 °F 93% 29.91 in 2.0 mi NW 4.6 mph - 0.02 in Rain Light Rain
4:38 AM 48.0 °F - 45.0 °F 89% 29.90 in 3.0 mi WNW 6.9 mph - 0.04 in Rain Light Rain
4:49 AM 46.4 °F 43.5 °F 44.6 °F 93% 29.90 in 2.0 mi NNW 5.8 mph - 0.04 in Rain Light Rain
4:51 AM 46.9 °F - 45.0 °F 93% 29.91 in 2.0 mi NNW 4.6 mph - 0.05 in Rain Light Rain
4:58 AM 46.9 °F - 45.0 °F 93% 29.90 in 2.0 mi NNW 4.6 mph - 0.00 in Rain Light Rain
5:51 AM 48.0 °F - 45.0 °F 89% 29.90 in 2.0 mi NNW 4.6 mph - 0.02 in Rain Light Rain
6:16 AM 48.0 °F - 46.0 °F 93% 29.90 in 2.0 mi North 4.6 mph - 0.01 in Rain Light Rain
6:51 AM 48.0 °F - 46.0 °F 93% 29.89 in 2.0 mi North 3.5 mph - 0.01 in   Overcast
7:30 AM 48.0 °F - 46.0 °F 93% 29.91 in 1.0 mi North 9.2 mph - 0.00 in Rain Light Rain
7:45 AM 48.2 °F - 44.6 °F 87% 29.91 in 2.0 mi North 8.1 mph - 0.01 in   Overcast
7:51 AM 48.0 °F - 45.0 °F 89% 29.91 in 2.0 mi North 8.1 mph - 0.01 in   Overcast
8:16 AM 48.0 °F - 45.0 °F 89% 29.92 in 2.0 mi NNE 6.9 mph - N/A   Overcast
8:46 AM 48.2 °F - 44.6 °F 87% 29.93 in 1.5 mi North 8.1 mph - N/A   Overcast
8:51 AM 48.0 °F - 45.0 °F 89% 29.94 in 1.5 mi North 10.4 mph - N/A   Overcast
9:16 AM 48.0 °F - 45.0 °F 89% 29.95 in 7.0 mi NNE 10.4 mph - N/A   Overcast
9:51 AM 48.9 °F - 45.0 °F 86% 29.97 in 10.0 mi North 11.5 mph - N/A   Overcast
10:39 AM 48.0 °F - 44.1 °F 86% 29.99 in 10.0 mi NNE 9.2 mph - 0.00 in   Light Drizzle
10:51 AM 50.0 °F - 45.0 °F 83% 29.99 in 10.0 mi NNE 5.8 mph - 0.00 in   Overcast
11:17 AM 48.9 °F - 44.1 °F 83% 30.00 in 10.0 mi North 12.7 mph - N/A   Overcast
11:51 AM 50.0 °F - 44.1 °F 80% 30.01 in 10.0 mi North 11.5 mph - N/A   Overcast
12:24 PM 51.1 °F - 43.0 °F 74% 30.02 in 10.0 mi North 9.2 mph - N/A   Mostly Cloudy
12:51 PM 54.0 °F - 42.1 °F 64% 30.02 in 10.0 mi North 16.1 mph 23.0 mph N/A   Mostly Cloudy
1:51 PM 57.0 °F - 39.0 °F 51% 30.03 in 10.0 mi North 21.9 mph 27.6 mph N/A   Mostly Cloudy
2:51 PM 55.0 °F - 35.1 °F 47% 30.05 in 10.0 mi NNW 19.6 mph 29.9 mph N/A   Scattered Clouds
3:51 PM 55.9 °F - 34.0 °F 44% 30.07 in 10.0 mi NW 18.4 mph 26.5 mph N/A   Partly Cloudy
4:51 PM 53.1 °F - 32.0 °F 45% 30.10 in 10.0 mi NNW 17.3 mph 27.6 mph N/A   Partly Cloudy
5:51 PM 48.9 °F - 30.9 °F 50% 30.16 in 10.0 mi NNW 10.4 mph 24.2 mph N/A   Partly Cloudy
6:51 PM 46.0 °F 37.8 °F 28.0 °F 50% 30.20 in 10.0 mi NNW 23.0 mph 29.9 mph N/A   Partly Cloudy
7:51 PM 45.0 °F 37.6 °F 27.0 °F 49% 30.25 in 10.0 mi NNW 17.3 mph 25.3 mph N/A   Partly Cloudy
8:51 PM 45.0 °F 37.6 °F 27.0 °F 49% 30.26 in 10.0 mi NNW 17.3 mph 23.0 mph N/A   Clear
9:51 PM 44.1 °F 37.7 °F 27.0 °F 51% 30.29 in 10.0 mi NNW 12.7 mph - N/A   Clear
10:51 PM 43.0 °F 38.2 °F 28.0 °F 56% 30.31 in 10.0 mi NNW 8.1 mph - N/A   Clear
11:51 PM 42.1 °F 37.1 °F 28.0 °F 58% 30.32 in 10.0 mi NW 8.1 mph - N/A   Clear